Dewpoint
48 49 49 49 49 50 50 50 50 49 47 34 32 35 19 17 9 22 32 34 27 19 8 22 17 13 19 22 23 23 24 17 20 22 21 19 18 18 17 17 14 14 10 12 12 10 5 12 9 10 11 10 14 21 23 20 18 14 13 13 12 24 4 2 6 8 8 11 11 12 12 11 10 9 10 9 5 10 11 6 2 2 -2 -1 -2 1 7
48 48 49 49 49 50 50 50 50 48 47 36 31 25 19 21 21 26 30 31 29 14 1 0 4 14 22 21 22 23 25 20 18 20 21 17 16 17 18 16 17 13 17 13 10 10 2 9 10 10 15 16 24 24 22 21 19 13 12 8 14 5 11 5 1 3 6 7 8 9 11 9 9 6 8 7 3 1 -0 -1 -4 2 4 7 3 5 5
48 48 48 49 48 49 49 49 49 48 48 43 33 20 25 22 23 25 27 28 22 11 18 7 6 9 16 15 14 15 19 21 20 20 19 20 16 15 14 17 17 17 18 17 20 19 5 5 8 9 12 14 17 16 15 15 21 24 26 26 23 5 9 4 0 -1 2 2 2 5 3 4 9 9 9 7 5 4 3 4 -2 1 4 5 -0 6 8
48 48 48 48 48 48 49 49 49 49 48 45 30 25 17 12 -1 18 19 21 22 23 23 22 17 12 11 6 9 16 13 18 20 21 22 21 21 19 18 21 19 18 16 14 15 15 17 8 6 8 7 8 17 21 19 19 23 26 24 25 13 5 9 8 8 8 7 9 9 12 16 9 6 7 7 6 5 1 1 1 1 5 4 5 6 7 8
48 48 48 48 48 48 49 49 49 49 49 46 30 25 16 17 6 10 8 17 17 16 20 20 15 7 14 -0 6 4 12 13 11 21 19 21 18 20 19 19 13 13 12 12 14 16 16 15 10 9 7 8 12 16 21 21 26 28 28 20 6 1 5 9 9 10 12 11 10 11 13 9 9 8 10 7 5 5 6 6 8 9 8 8 9 9 9
48 48 48 48 48 48 48 48 49 49 49 48 30 19 21 9 12 17 13 7 8 4 5 21 17 16 11 3 12 9 12 11 4 11 19 23 21 14 10 18 17 12 11 10 3 10 16 11 6 8 7 9 10 12 18 21 24 24 15 12 10 4 4 4 5 8 10 10 10 10 10 10 10 10 10 11 8 5 6 6 10 10 6 8 10 10 10
48 48 48 48 48 48 48 48 49 49 49 44 27 17 17 20 20 17 19 10 15 10 14 21 20 17 16 22 12 6 13 8 11 14 17 16 17 14 4 6 11 15 16 10 7 13 -1 2 3 9 8 7 6 7 9 22 23 16 12 12 1 8 6 2 4 8 11 12 13 13 12 12 11 10 11 12 10 8 9 10 11 10 9 10 10 10 10
48 48 48 48 48 48 48 48 48 49 49 37 26 22 18 17 14 12 18 19 17 18 17 17 15 13 18 6 6 9 13 9 14 14 13 3 9 19 7 6 13 18 18 13 6 10 7 4 4 6 9 7 8 5 11 13 20 14 12 8 11 8 6 12 5 3 9 10 10 9 11 10 8 9 10 10 10 11 11 9 10 10 10 11 11 10 11
48 48 48 48 48 48 48 48 48 49 49 31 24 25 25 26 21 22 12 7 10 17 16 16 15 11 12 5 7 13 14 11 13 11 13 8 7 16 10 13 20 19 18 17 14 14 12 9 10 12 12 10 15 8 8 18 14 14 10 7 8 6 6 -1 -0 4 9 9 8 8 9 9 8 8 9 10 10 7 8 7 11 8 9 10 7 8 11
48 48 48 47 47 47 48 48 48 49 45 29 26 22 26 26 27 25 18 6 21 16 11 9 6 2 12 8 10 13 11 15 13 9 16 21 20 20 17 19 16 15 17 16 18 18 18 19 19 19 17 19 20 18 15 17 16 12 8 6 6 3 1 4 -0 5 6 9 7 9 8 6 5 4 10 10 10 11 10 11 12 12 11 9 9 10 13
48 48 47 48 48 48 48 47 48 48 38 29 25 25 25 24 22 23 20 8 8 11 9 6 5 11 13 21 11 19 17 21 20 6 5 22 22 23 20 19 16 14 15 17 24 23 23 23 21 20 21 20 20 20 21 20 20 16 15 6 3 1 4 3 2 2 -0 5 8 8 4 -0 1 10 12 11 10 10 9 9 9 10 12 11 13 13 14
47 48 47 47 47 47 47 47 47 47 46 31 27 26 28 25 20 21 16 6 12 8 7 8 11 9 16 19 20 19 18 19 19 21 10 14 21 22 20 18 16 10 16 25 24 24 23 23 22 21 20 20 19 18 18 18 18 19 13 10 4 4 3 2 -2 4 6 5 6 6 -4 -1 9 11 13 12 11 11 10 10 10 11 12 13 14 14 15
47 47 47 48 47 47 47 47 47 47 48 36 31 25 27 25 19 16 16 10 4 10 3 10 8 14 19 23 22 21 20 19 15 20 21 22 20 23 21 19 17 15 25 26 23 19 13 11 12 18 18 15 15 18 18 16 16 17 15 11 9 4 2 -0 6 -3 0 -0 -3 1 1 7 10 11 12 12 12 11 11 7 11 12 13 14 14 14 14
48 48 48 47 47 46 46 46 47 47 48 43 35 28 28 25 23 17 16 13 17 9 9 12 14 12 19 21 20 19 17 18 16 21 20 24 22 22 25 22 23 27 25 23 16 14 9 8 -2 5 6 8 9 8 14 16 16 16 15 14 13 9 -1 5 7 1 2 -4 -1 8 7 7 10 10 11 12 11 11 9 7 6 8 13 14 14 14 14
48 48 47 47 46 46 46 46 46 46 47 44 33 31 30 29 27 25 24 17 11 10 6 6 12 14 16 20 19 15 11 10 11 16 21 26 23 23 24 25 28 27 24 22 13 10 5 2 -1 -1 4 2 -2 -3 18 17 16 15 15 13 12 13 9 10 5 6 5 5 3 2 -2 -1 4 11 12 13 12 11 11 8 9 13 13 15 14 14 14
48 47 47 46 45 46 46 46 46 47 46 41 31 30 29 30 29 26 21 22 16 3 6 17 19 17 18 19 19 15 12 9 10 11 9 14 17 22 25 25 25 23 18 10 9 5 2 2 -2 -4 -2 -4 2 3 -1 11 10 12 15 13 12 11 10 7 4 5 1 3 3 -1 0 4 8 11 12 13 13 12 10 4 4 11 14 16 15 14 15
48 47 47 46 45 45 46 46 47 47 43 39 28 30 31 31 30 22 19 19 15 9 18 23 24 23 18 12 15 15 15 9 14 5 4 11 15 20 23 24 25 23 17 11 9 6 4 0 -7 -5 0 4 3 1 7 7 7 4 14 14 12 8 2 3 5 4 2 -8 -1 3 -4 1 9 11 12 12 12 11 4 -6 -2 9 15 16 16 15 15
48 48 47 47 45 46 46 47 47 46 43 42 32 30 30 31 31 31 25 18 11 9 25 28 23 19 18 15 14 18 19 18 17 14 13 18 21 21 20 22 19 18 21 8 7 3 -1 -0 1 -0 0 5 8 8 3 5 3 3 8 13 8 4 2 -0 8 -5 4 8 -4 -5 5 9 13 13 12 12 12 6 -4 -7 -0 12 16 16 17 16 16
48 48 47 47 46 46 47 48 48 47 44 39 30 30 27 28 29 29 22 20 14 7 25 23 24 23 23 24 25 21 20 18 18 9 7 11 12 21 22 21 20 8 14 6 7 2 3 1 9 -3 0 5 7 3 8 3 3 9 10 7 3 0 -4 1 -3 -0 1 -2 3 8 7 12 13 13 10 12 5 -0 -1 5 12 16 16 17 18 17 17
48 48 48 48 48 48 48 49 48 46 40 42 35 27 27 27 28 31 23 17 18 21 26 28 28 29 27 29 24 21 22 20 18 13 12 8 15 18 10 11 9 14 11 8 7 5 2 2 2 7 2 -2 6 8 3 5 9 9 8 7 5 5 3 1 2 2 2 -2 -1 1 0 3 13 11 8 11 7 8 10 13 16 18 18 18 18 18 19
47 48 47 48 48 49 49 48 47 44 47 42 39 27 25 28 28 28 27 24 22 12 18 26 28 27 29 27 26 27 24 18 18 15 19 17 20 10 4 2 6 9 7 3 3 2 2 3 1 3 8 4 8 9 3 -0 4 9 10 4 5 5 0 -1 0 3 2 -0 2 4 10 12 12 11 9 10 11 13 15 17 17 18 19 19 19 19 19
47 47 48 47 47 47 47 47 46 47 45 41 39 27 24 26 28 31 30 28 22 15 17 27 30 28 29 29 30 31 29 29 29 26 20 15 22 14 11 16 18 12 10 8 5 3 6 5 1 2 3 5 8 4 5 3 3 6 9 8 8 11 4 7 6 5 5 7 9 12 12 13 13 13 13 14 14 16 18 18 18 19 19 20 19 19 19
48 47 47 47 47 46 47 47 47 46 45 44 37 27 25 26 26 30 28 25 27 29 30 30 30 31 31 31 31 30 30 32 30 30 28 20 12 20 18 18 15 19 22 18 12 8 8 9 6 5 3 3 6 4 4 2 3 3 4 12 10 13 13 13 10 8 11 12 13 15 13 12 13 15 16 15 16 18 18 19 19 20 20 20 20 20 20
47 47 47 47 47 46 45 46 46 45 46 44 39 27 25 27 27 26 26 27 23 18 20 27 28 15 20 25 29 31 31 30 29 31 31 28 16 11 17 20 23 20 19 21 18 13 10 8 8 4 4 10 2 2 3 5 4 8 2 9 5 10 12 11 8 11 11 4 10 10 10 13 15 15 16 17 18 18 19 20 20 20 21 22 20 19 19
47 47 47 46 46 45 46 46 45 47 43 40 33 32 30 28 28 24 17 12 15 17 5 9 11 21 28 30 30 31 30 30 32 32 32 30 28 18 16 23 26 21 19 20 18 15 7 9 8 5 5 12 8 7 12 7 5 8 2 6 9 9 11 8 10 11 11 10 10 12 14 16 17 17 16 17 18 19 20 20 21 22 22 20 20 19 19
46 46 46 47 47 47 46 45 44 42 45 40 40 24 23 23 27 28 31 27 20 15 8 4 13 27 28 29 27 29 31 32 30 31 30 29 28 28 27 28 27 25 24 21 15 12 5 4 -1 1 4 8 13 7 6 11 7 10 8 6 9 10 11 5 11 12 12 13 13 13 16 16 17 17 18 19 19 19 19 20 22 22 20 19 19 19 19
46 46 46 46 46 46 46 46 45 45 43 40 35 31 32 30 29 27 24 27 19 12 17 7 9 20 26 26 28 31 29 30 30 30 30 29 30 30 29 26 24 18 15 11 11 5 5 4 6 8 4 8 3 7 7 7 7 3 4 9 11 11 10 12 13 12 11 10 12 16 14 13 15 17 18 18 19 19 20 21 20 19 17 17 17 18 17
46 45 45 45 45 44 44 45 44 42 40 38 35 32 29 30 30 31 29 27 23 10 7 7 11 16 25 27 29 29 29 29 28 29 28 29 29 28 27 25 22 15 10 11 11 9 6 7 10 6 2 6 7 8 5 6 3 6 9 9 11 9 10 13 13 11 12 15 16 18 18 17 16 16 18 19 19 20 20 18 16 15 15 17 17 17 16
45 44 44 44 44 45 44 43 43 42 43 37 30 31 28 30 30 33 33 29 26 24 22 19 20 15 15 26 27 28 28 28 28 28 27 28 27 27 26 26 21 13 8 7 5 5 5 9 8 10 11 13 9 8 3 5 -4 2 8 11 11 12 13 14 14 14 16 17 18 18 16 14 15 17 19 19 20 18 14 13 13 14 16 18 17 17 18
45 45 44 46 45 45 45 44 43 46 41 28 26 22 20 20 26 29 31 30 27 24 18 9 9 9 20 27 25 24 26 27 27 27 27 26 26 26 26 25 22 22 14 13 11 10 14 12 11 15 17 21 10 4 4 3 -2 7 11 12 13 13 13 15 16 16 17 18 19 18 16 15 16 17 18 18 17 14 12 13 14 16 17 16 17 17 14
45 45 46 46 46 46 46 45 45 43 37 23 18 13 12 9 14 36 37 30 26 23 14 19 10 10 15 25 25 24 23 25 24 24 25 24 25 23 20 19 18 22 11 9 9 13 13 10 9 14 17 23 10 2 1 1 2 3 12 14 15 14 15 15 17 18 19 20 18 16 15 14 14 14 14 13 11 12 13 15 16 17 15 18 14 11 11
45 45 45 46 46 46 47 45 43 39 24 21 16 14 14 13 16 26 35 32 25 20 15 11 8 8 8 19 21 26 27 25 24 24 25 26 19 19 16 19 19 21 25 12 15 9 13 18 11 12 11 20 14 1 -3 3 8 11 13 15 15 16 16 16 17 19 20 19 16 15 12 12 11 11 10 11 11 13 14 11 11 13 17 12 11 12 12
44 45 45 45 45 45 45 46 42 33 25 32 42 40 41 42 42 38 38 26 24 13 14 15 7 12 12 10 17 19 22 21 16 17 15 21 18 18 15 20 20 20 23 19 10 11 15 15 14 11 15 11 5 0 2 10 12 14 15 16 16 16 16 17 18 20 18 16 15 12 11 9 10 10 11 11 14 12 11 12 14 14 11 11 11 12 13
46 46 44 45 45 44 43 42 41 39 35 22 15 18 22 40 39 38 27 25 18 13 16 14 8 8 8 11 11 14 21 16 13 15 10 20 19 16 15 14 18 13 17 15 17 15 13 14 10 11 11 9 6 2 3 13 15 15 16 16 16 16 16 17 19 17 15 14 13 12 10 10 11 12 13 14 14 12 13 14 13 11 11 12 11 11 9
46 45 45 43 45 45 42 39 26 29 23 25 26 27 26 40 42 41 31 21 12 13 12 13 15 10 14 14 8 17 19 16 12 14 12 14 18 13 15 8 10 11 11 16 14 14 8 12 17 8 5 2 3 2 6 15 16 16 16 16 16 16 16 18 16 13 12 12 10 9 10 11 13 12 12 13 12 9 10 11 12 12 12 9 6 3 3
45 46 46 45 44 42 29 28 26 16 12 13 16 31 40 40 39 27 25 24 19 14 13 9 13 8 8 10 11 11 20 14 15 9 11 13 12 13 10 7 10 14 19 12 9 7 7 16 10 5 2 6 4 9 14 16 16 16 16 16 16 15 17 15 13 11 10 9 9 9 12 12 10 11 12 10 8 9 10 11 12 9 5 3 3 2 3
45 44 42 38 28 19 15 19 31 19 17 18 24 36 36 38 30 29 26 27 25 24 20 10 16 8 12 12 12 14 20 13 15 10 9 13 12 9 5 7 12 21 10 6 3 7 12 12 7 3 1 4 7 14 16 17 17 16 16 16 16 17 15 12 12 10 9 9 9 8 11 5 10 9 6 7 9 10 11 8 4 3 3 2 1 2 3
42 38 25 21 17 13 11 13 17 23 36 37 35 27 24 26 12 15 20 18 14 26 17 17 10 9 12 13 12 18 16 9 12 9 8 4 12 6 7 8 12 18 6 3 6 15 5 3 -1 1 5 12 14 15 18 17 17 17 17 16 16 15 12 11 10 8 8 8 7 10 10 8 8 5 8 9 10 10 6 3 3 2 1 2 2 3 4
34 21 22 19 15 8 14 16 28 38 31 34 27 11 10 13 13 12 10 10 12 17 11 17 10 13 11 8 12 23 17 12 11 5 10 16 13 11 5 6 8 7 -2 0 4 9 2 -2 -4 -2 5 7 11 17 18 16 17 17 16 16 17 13 12 10 9 8 8 8 9 11 9 10 7 6 8 11 6 3 4 2 1 0 1 1 2 3 2
22 18 14 12 12 13 29 30 37 30 29 13 13 13 10 13 18 10 9 11 11 9 11 13 12 13 14 14 11 12 23 17 10 10 8 9 19 9 10 2 4 2 1 -1 4 -0 1 1 -1 -6 0 10 16 18 16 16 16 16 14 16 14 13 11 9 8 8 9 9 11 11 8 10 10 9 9 5 4 4 1 0 0 -0 0 1 2 1 0
23 17 15 11 16 23 24 26 22 19 13 10 11 11 9 11 10 9 9 8 9 10 10 10 6 11 10 10 12 10 18 15 9 6 6 10 14 15 4 4 7 -0 -1 1 4 -4 -7 -5 -5 0 5 13 17 16 16 16 15 13 14 15 13 12 10 8 8 9 9 11 9 8 9 13 12 9 5 4 4 1 0 -1 -0 -0 1 1 -1 -1 -3
27 16 16 26 27 26 21 17 16 13 12 11 10 9 8 8 10 15 12 11 11 10 12 11 10 10 15 14 13 11 8 11 8 6 7 6 19 8 3 -0 -1 -1 1 3 -3 -9 -5 -1 -5 -3 7 16 16 16 16 15 12 11 13 13 12 10 8 7 8 8 10 9 8 9 11 14 7 5 4 4 2 0 -0 -0 -0 1 2 -1 -1 -2 -4
34 33 30 19 17 16 15 13 15 13 10 11 7 8 8 8 11 11 10 8 7 9 11 10 11 17 14 10 7 10 11 23 18 9 5 6 18 6 -0 -1 -0 -1 3 -8 -6 -8 -4 -4 -8 2 13 17 15 16 15 12 10 12 14 12 11 9 7 7 8 9 10 9 11 12 12 8 6 4 3 2 0 -1 -1 -0 1 2 -0 -3 -4 -5 -5
29 25 15 13 14 12 10 4 10 11 10 9 8 9 8 9 16 10 9 11 9 7 9 10 12 13 12 9 8 11 13 17 22 1 2 4 -1 1 -2 0 2 2 -0 -6 -6 3 5 -4 -2 11 16 15 16 14 11 9 9 13 12 11 9 7 6 8 8 9 8 9 12 11 7 5 3 2 1 -0 -1 -1 -1 -1 0 -1 -3 -5 -5 -6 -5
16 15 14 9 8 11 7 4 11 12 10 8 15 8 8 12 13 6 11 12 9 11 9 7 9 8 11 12 5 11 17 8 14 6 4 1 -0 -0 -0 2 -1 -6 -1 0 -10 -7 -5 1 9 15 16 15 14 10 9 9 11 12 11 9 7 5 6 7 7 8 8 10 8 6 4 2 1 0 -0 -1 -1 -0 -1 -1 -1 -3 -5 -6 -7 -7 -6
19 11 8 7 8 10 9 8 7 8 11 10 12 10 8 11 9 9 8 6 8 10 14 10 7 7 7 7 7 7 -3 0 4 4 0 -3 -1 2 2 1 -2 1 -3 -5 -6 -2 -1 3 13 17 17 15 10 9 9 10 13 11 10 7 5 5 7 7 7 8 9 5 4 4 2 1 -0 -1 -2 -2 0 -1 -3 -2 -3 -5 -6 -7 -8 -7 -7
13 12 11 10 11 9 10 10 12 10 11 9 10 7 9 12 10 12 9 6 11 9 7 3 5 6 8 8 6 4 -1 -2 3 4 -0 1 2 1 3 -2 -3 -12 -5 -3 -12 -8 2 12 16 17 16 11 10 10 9 11 13 10 8 6 5 5 7 6 6 8 6 4 4 2 1 -1 -2 -1 -2 -1 -1 -3 -4 -4 -5 -5 -7 -8 -8 -7 -7
10 11 14 11 11 9 13 11 9 10 10 8 9 6 6 6 8 9 9 7 10 10 8 6 8 6 5 3 4 5 3 2 1 3 3 4 1 -1 -2 -3 -9 -9 -8 -1 2 5 13 15 18 16 13 11 10 10 10 11 11 9 7 5 4 6 6 5 8 6 3 2 1 1 -1 -2 -2 -2 -2 -2 -2 -5 -6 -6 -6 -7 -8 -8 -8 -8 -8
19 13 13 11 8 10 11 12 14 12 13 8 3 1 9 10 8 8 6 4 9 8 9 8 5 3 4 4 -2 -0 3 3 1 2 -5 -4 -1 -1 -1 -3 -10 -8 -4 -1 8 13 14 18 17 12 10 10 10 10 11 12 10 8 5 5 5 6 6 7 7 2 2 1 1 -0 -3 -3 -3 -4 -3 -2 -5 -7 -7 -7 -8 -9 -9 -9 -9 -9 -9
18 15 17 13 14 15 13 12 15 12 8 9 6 7 6 5 7 7 7 9 6 3 4 11 12 8 6 4 2 -2 2 0 2 -1 -4 -3 -10 -14 -8 -5 -10 -3 6 11 15 16 18 18 12 10 9 9 10 10 11 11 9 7 6 6 7 7 7 8 2 1 0 1 1 -2 -4 -4 -4 -5 -5 -6 -7 -7 -8 -9 -9 -10 -10 -10 -9 -9 -10
14 17 13 14 13 14 12 12 6 4 8 10 9 8 10 9 8 11 6 7 7 4 3 7 6 1 2 1 1 -0 4 1 -0 -1 -3 0 -5 -4 1 -1 -3 5 13 15 18 19 17 13 11 10 9 9 10 11 11 10 6 6 6 7 9 9 8 3 1 -1 -0 1 -0 -1 -5 -6 -5 -5 -6 -6 -8 -9 -11 -10 -10 -10 -10 -9 -10 -10 -11
11 15 14 14 7 8 9 10 12 12 10 11 10 7 13 6 6 9 7 8 1 10 5 3 1 -0 1 4 6 3 -1 -3 -3 -6 1 1 -6 3 4 7 14 15 18 19 17 15 12 9 10 10 9 10 11 11 10 6 5 5 6 8 9 8 4 2 -1 -1 -0 0 -2 -5 -6 -6 -7 -7 -7 -8 -10 -11 -12 -12 -10 -10 -10 -9 -10 -11 -11